Regional Weather Roundup
Issued by NWS Little Rock, AR

Home | Current Version | Previous Version | Graphics & Text | Print | Product List | Glossary On
Versions: 1 2 3 4 5 6 7 8 9 10 11 12 13 14 15 16 17 18 19 20 21 22 23 24 25 26 27 28 29 30 31 32 33 34 35 36 37 38 39 40 41 42 43 44 45 46 47 48 49 50
585
ASUS44 KLZK 091005
RWRLZK

WEATHER ROUNDUP FOR ARKANSAS
NATIONAL WEATHER SERVICE LITTLE ROCK AR
400 AM CST TUE FEB 09 2016

NOTE: "FAIR" INDICATES FEW OR NO CLOUDS BELOW 12,000 FEET WITH NO
SIGNIFICANT WEATHER AND/OR OBSTRUCTIONS TO VISIBILITY.

ARZ001-003-010-029-091100-
NORTHWEST ARKANSAS

CITY           SKY/WX    TMP DP  RH WIND       PRES   REMARKS
FAYETTEVILLE   CLEAR     29  18  63 W8        30.06F WCI  21
FORT SMITH     CLEAR     31  16  54 W10       30.12F WCI  22
HARRISON       PTCLDY    28  15  58 NW12G21   29.98F WCI  18
BENTONVILLE    PTCLDY    30  16  55 NW14      30.05F WCI  20
ROGERS         PTCLDY    29  19  66 NW13      30.03F WCI  19
SILOAM SPGS    PTCLDY    30  12  47 NW13      30.07F WCI  20
HIGHFILL       CLEAR     31  19  61 NW15      30.04F WCI  20
$$

ARZ004-005-016-091100-
NORTH CENTRAL ARKANSAS

CITY           SKY/WX    TMP DP  RH WIND       PRES   REMARKS
BATESVILLE     CLOUDY    32  12  43 W10G22    29.98S WCI  24
FLIPPIN        CLOUDY   N/A N/A N/A NW14G29   29.95F
MTN HOME       PTCLDY    29  15  56 NW9G20    29.95F WCI  20
$$

ARZ040-041-091100-
WEST CENTRAL ARKANSAS

CITY           SKY/WX    TMP DP  RH WIND       PRES   REMARKS
MENA           CLEAR     37  18  44 NW12G21   30.10F
MOUNT IDA      CLEAR     37  15  40 N8G23     30.06R
$$

ARZ009-017-025-026-028-091100-
NORTHEAST ARKANSAS

CITY           SKY/WX    TMP DP  RH WIND       PRES   REMARKS
CORNING        FAIR      32  18  55 NW12      29.94S WCI  23
JONESBORO      CLOUDY    31  18  58 W9        29.95F WCI  23
NEWPORT        CLOUDY    32  15  49 NW14      29.99S WCI  22
WALNUT RIDGE   MOCLDY    30  12  47 NW22G29   29.95F WCI  17
BLYTHEVILLE    CLOUDY    32  19  58 N16       29.95S WCI  21
$$

ARZ022-023-033-042-044-091100-
CENTRAL ARKANSAS

CITY           SKY/WX    TMP DP  RH WIND       PRES   REMARKS
LITTLE ROCK    PTCLDY    36  14  40 NW16      30.05S
N LITTLE ROCK    N/A     34  17  49 NW7G18    30.05S WCI  27
JACKSONVILLE   CLEAR     34  11  39 W8        30.02S WCI  27
SEARCY         CLEAR     33  15  47 NW9       30.03S WCI  25
HOT SPRINGS    CLEAR     37  15  40 NW8G18    30.07R
RUSSELLVILLE   PTCLDY    36  16  44 NW14G24   30.05S
CLINTON        FAIR      32  14  47 W7        30.01F WCI  26
$$

ARZ036-091100-
EAST ARKANSAS

CITY           SKY/WX    TMP DP  RH WIND       PRES   REMARKS
WEST MEMPHIS   CLOUDY    32  22  66 NW5       29.97S WCI  27
$$

ARZ050-053-066-070-073-091100-
SOUTHWEST ARKANSAS

CITY           SKY/WX    TMP DP  RH WIND       PRES   REMARKS
ARKADELPHIA    FAIR      38  16  41 W10       30.11R
CAMDEN         CLEAR     32  12  43 W3        30.12R
TEXARKANA      CLEAR     37  17  44 W13       30.16R
EL DORADO      CLEAR     36  15  42 W7        30.13R
DE QUEEN       CLEAR     38  17  42 NW9       30.14S
$$

ARZ056-057-069-091100-
SOUTHEAST ARKANSAS

CITY           SKY/WX    TMP DP  RH WIND       PRES   REMARKS
PINE BLUFF     PTCLDY    34  13  41 W9        30.06S WCI  27
STUTTGART      CLEAR     32  18  55 W10       30.04R WCI  24
MONTICELLO     CLEAR     34  14  43 W7        30.06S WCI  28

$$






USA.gov is the U.S. government's official web portal to all federal, state and local government web resources and services.